Retour au catalogue

STARLINK-37338

ActifCommunicationsSSO
NORAD 68739·PAYLOAD·🇺🇸 United States

Lancé Apr 15, 2026 depuis Vandenberg Space Force Base

Loading…

Prochains Passages (prochaines 24 heures)

TLE

FraisSource: CelesTrak SupGP

Époque: Sep 15, 2026, 03:51 UTC

1 68739C 26082M   26258.16090278 -.00021074  00000+0 -65396-3 0  2582
2 68739  97.2848 120.3708 0002524  94.8306   0.9547 15.33458385    18

Suivez STARLINK-37338 en temps réel avec AllMySat

Download on the App Store